CW8398 Weather Reports


Display with metric or nautical units.
time (UTC)temp
F
wind
direction
speed
MPH
gust
MPH
rain 1hr
in
rain 24hr
in
rain mn
in
humidity
%
barometer
mb
20260509141303 54 178 2.0 5.0 0.00 0.00 0.00 51 1022.6
20260509140303 54 181 3.0 7.0 0.00 0.00 0.00 53 1022.6
20260509135803 54 33 2.0 6.0 0.00 0.00 0.00 52 1022.6
20260509135306 55 191 2.0 6.0 0.00 0.00 0.00 51 1022.6
20260509134803 55 40 2.0 3.0 0.00 0.00 0.00 51 1022.6
20260509134303 55 20 2.0 6.0 0.00 0.00 0.00 53 1022.6
20260509133803 55 230 2.0 6.0 0.00 0.00 0.00 53 1022.7
20260509133303 55 151 2.0 5.0 0.00 0.00 0.00 51 1022.7
20260509132306 56 89 3.0 8.0 0.00 0.00 0.00 49 1022.7
20260509131803 56 158 3.0 7.0 0.00 0.00 0.00 49 1023.9
20260509131303 56 171 2.0 6.0 0.00 0.00 0.00 48 1023.9
20260509130303 55 65 2.0 7.0 0.00 0.00 0.00 48 1023.9
20260509125803 56 163 2.0 6.0 0.00 0.00 0.00 47 1023.9
20260509125307 56 170 1.0 7.0 0.00 0.00 0.00 49 1023.9
20260509124803 55 233 2.0 7.0 0.00 0.00 0.00 48 1023.9
20260509124304 56 147 2.0 8.0 0.00 0.00 0.00 49 1023.9
20260509123803 56 86 1.0 5.0 0.00 0.00 0.00 48 1023.9
20260509123304 56 62 2.0 6.0 0.00 0.00 0.00 49 1023.9
20260509122803 57 163 2.0 6.0 0.00 0.00 0.00 48 1023.9
20260509122306 57 159 1.0 3.0 0.00 0.00 0.00 48 1023.9
20260509121803 57 209 2.0 7.0 0.00 0.00 0.00 44 1023.9
20260509121303 57 291 3.0 6.0 0.00 0.00 0.00 48 1023.9
20260509120803 57 220 3.0 7.0 0.00 0.00 0.00 47 1023.9
20260509120303 57 146 4.0 8.0 0.00 0.00 0.00 45 1023.9
20260509115803 57 124 2.0 6.0 0.00 0.00 0.00 42 1023.9
20260509115306 57 39 2.0 5.0 0.00 0.00 0.00 45 1023.9
20260509114803 57 183 2.0 8.0 0.00 0.00 0.00 45 1023.9
20260509114303 57 173 2.0 7.0 0.00 0.00 0.00 44 1023.9
20260509113803 57 33 3.0 9.0 0.00 0.00 0.00 43 1023.9
20260509113303 57 131 2.0 6.0 0.00 0.00 0.00 43 1023.9
20260509111804 57 145 4.0 9.0 0.00 0.00 0.00 43 1023.9
20260509111303 57 109 3.0 9.0 0.00 0.00 0.00 45 1023.9
20260509110803 57 178 2.0 7.0 0.00 0.00 0.00 45 1023.9
20260509110303 57 162 3.0 9.0 0.00 0.00 0.00 46 1023.9
20260509105803 57 180 3.0 9.0 0.00 0.00 0.00 46 1024.1
20260509105306 56 182 4.0 8.0 0.00 0.00 0.00 47 1024.1
20260509104803 56 197 2.0 6.0 0.00 0.00 0.00 48 1024.1
20260509104303 56 154 4.0 9.0 0.00 0.00 0.00 47 1024.1
20260509103803 57 164 4.0 9.0 0.00 0.00 0.00 45 1024.1
20260509103303 56 184 2.0 6.0 0.00 0.00 0.00 48 1024.1
20260509102803 56 128 3.0 12.0 0.00 0.00 0.00 50 1024.1
20260509102305 56 88 2.0 6.0 0.00 0.00 0.00 49 1024.1
20260509101303 56 161 2.0 7.0 0.00 0.00 0.00 51 1024.1
20260509100803 56 11 2.0 3.0 0.00 0.00 0.00 52 1024.1
20260509100303 56 156 2.0 5.0 0.00 0.00 0.00 52 1024.5
20260509095803 55 24 2.0 7.0 0.00 0.00 0.00 53 1024.5
20260509094803 55 3 2.0 6.0 0.00 0.00 0.00 53 1024.5
20260509093803 55 137 2.0 7.0 0.00 0.00 0.00 54 1024.5
20260509093303 55 75 3.0 7.0 0.00 0.00 0.00 53 1024.5
20260509092803 55 267 2.0 5.0 0.00 0.00 0.00 54 1024.5
20260509092305 55 31 3.0 9.0 0.00 0.00 0.00 54 1024.5
20260509091803 54 165 3.0 6.0 0.00 0.00 0.00 54 1024.5
20260509091303 54 136 3.0 6.0 0.00 0.00 0.00 54 1024.5
20260509090803 54 26 1.0 7.0 0.00 0.00 0.00 54 1024.5
20260509084803 54 226 3.0 8.0 0.00 0.00 0.00 54 1024.5
20260509084303 53 167 2.0 7.0 0.00 0.00 0.00 55 1024.5
20260509083803 53 214 3.0 8.0 0.00 0.00 0.00 54 1024.5
20260509083303 54 139 2.0 6.0 0.00 0.00 0.00 54 1024.5
20260509081803 53 312 2.0 8.0 0.00 0.00 0.00 55 1024.5
20260509081304 53 213 2.0 12.0 0.00 0.00 0.00 55 1024.5
20260509080803 53 209 2.0 5.0 0.00 0.00 0.00 56 1024.5
20260509080303 53 127 2.0 7.0 0.00 0.00 0.00 55 1024.5
20260509075306 52 223 3.0 9.0 0.00 0.00 0.00 55 1024.5
20260509074803 52 70 2.0 3.0 0.00 0.00 0.00 54 1024.5
20260509073303 52 175 2.0 8.0 0.00 0.00 0.00 52 1024.7
20260509072804 52 99 2.0 7.0 0.00 0.00 0.00 52 1024.7
20260509072306 52 142 2.0 7.0 0.00 0.00 0.00 53 1024.7
20260509071803 52 5 2.0 9.0 0.00 0.00 0.00 53 1024.7
20260509071303 52 103 4.0 10.0 0.00 0.00 0.00 53 1024.7
20260509070803 52 34 2.0 7.0 0.00 0.00 0.00 54 1024.7
20260509070304 52 83 2.0 7.0 0.00 0.00 0.00 53 1024.7
20260509065803 52 45 2.0 7.0 0.00 0.00 0.00 55 1024.7
20260509065306 51 76 3.0 7.0 0.00 0.00 0.00 57 1024.7
20260509064303 51 208 1.0 5.0 0.00 0.00 0.00 61 1024.7
20260509063804 50 188 2.0 7.0 0.00 0.00 0.00 60 1024.7
20260509063304 50 15 2.0 7.0 0.00 0.00 0.00 63 1024.7
20260509062804 49 164 2.0 3.0 0.00 0.00 0.00 66 1024.7
20260509062306 49 193 1.0 3.0 0.00 0.00 0.00 66 1024.7
20260509061803 48 125 2.0 7.0 0.00 0.00 0.00 69 1024.7
20260509060803 47 202 1.0 2.0 0.00 0.00 0.00 73 1024.7
20260509060303 46 112 1.0 3.0 0.00 0.00 0.00 75 1024.7
20260509055804 46 144 0.0 2.0 0.00 0.00 0.00 77 1024.7
20260509055306 45 52 1.0 3.0 0.00 0.00 0.00 79 1024.7
20260509054803 44 139 0.0 2.0 0.00 0.00 0.00 82 1024.7
20260509054303 44 201 0.0 2.0 0.00 0.00 0.00 83 1024.7
20260509053803 43 142 0.0 1.0 0.00 0.00 0.00 84 1024.7
20260509053303 43 132 0.0 2.0 0.00 0.00 0.00 85 1024.9
20260509052803 42 173 0.0 2.0 0.00 0.00 0.00 87 1024.9
20260509052306 42 161 0.0 3.0 0.00 0.00 0.00 87 1024.9
20260509051804 42 150 0.0 1.0 0.00 0.00 0.00 88 1024.9
20260509051303 41 147 0.0 3.0 0.00 0.00 0.00 89 1024.9
20260509050804 41 172 0.0 3.0 0.00 0.00 0.00 90 1024.9
20260509050304 41 355 0.0 1.0 0.00 0.00 0.00 91 1024.9
20260509045804 41 355 0.0 1.0 0.00 0.00 0.00 91 1024.9
20260509045306 41 355 0.0 1.0 0.00 0.00 0.00 91 1024.9
20260509044803 40 343 0.0 0.0 0.00 0.00 0.00 91 1024.9
20260509044303 40 355 0.0 0.0 0.00 0.00 0.00 92 1024.9
20260509043803 40 355 0.0 0.0 0.00 0.00 0.00 92 1024.9
20260509043304 40 355 0.0 1.0 0.00 0.00 0.00 91 1024.9
20260509042804 40 355 1.0 1.0 0.00 0.00 0.00 91 1024.9
20260509042306 39 355 0.0 1.0 0.00 0.00 0.00 91 1024.9
20260509041803 39 355 0.0 1.0 0.00 0.00 0.00 91 1024.9
20260509040804 39 355 0.0 0.0 0.00 0.00 0.00 90 1024.9
20260509040303 38 355 0.0 0.0 0.00 0.00 0.00 90 1024.9
20260509035804 38 355 0.0 0.0 0.00 0.00 0.00 90 1024.9
20260509035306 38 355 0.0 0.0 0.00 0.00 0.00 90 1024.9
20260509034804 38 355 0.0 0.0 0.00 0.00 0.00 90 1024.9
20260509033804 38 355 0.0 0.0 0.00 0.00 0.00 89 1024.9
20260509033304 38 355 0.0 0.0 0.00 0.00 0.00 89 1024.9
20260509032306 38 355 0.0 0.0 0.00 0.00 0.00 89 1024.9
20260509031803 38 355 0.0 0.0 0.00 0.00 0.00 89 1024.9
20260509031303 38 355 0.0 0.0 0.00 0.00 0.00 89 1024.9
20260509030804 38 355 0.0 0.0 0.00 0.00 0.00 88 1024.9
20260509030304 38 355 0.0 0.0 0.00 0.00 0.00 88 1024.9
20260509024304 38 355 0.0 0.0 0.00 0.00 0.00 88 1024.9
20260509022804 38 355 0.0 0.0 0.00 0.00 0.00 88 1024.9
20260509022306 38 355 0.0 0.0 0.00 0.00 0.00 87 1024.9
20260509021803 38 355 0.0 0.0 0.00 0.00 0.00 87 1024.9
20260509020803 37 355 0.0 0.0 0.00 0.00 0.00 87 1024.9
20260509015804 37 355 0.0 0.0 0.00 0.00 0.00 85 1024.9
20260509015306 37 355 0.0 0.0 0.00 0.00 0.00 85 1024.9
20260509014804 37 355 0.0 0.0 0.00 0.00 0.00 85 1024.9
20260509014304 37 355 0.0 0.0 0.00 0.00 0.00 85 1024.9
20260509013803 37 355 0.0 0.0 0.00 0.00 0.00 84 1024.9
20260509013304 37 355 0.0 0.0 0.00 0.00 0.00 84 1024.9
20260509012306 38 355 0.0 0.0 0.00 0.00 0.00 83 1024.9
20260509011804 38 355 0.0 0.0 0.00 0.00 0.00 83 1024.9
20260509010804 38 355 0.0 0.0 0.00 0.00 0.00 84 1024.9
20260509010304 38 355 0.0 0.0 0.00 0.00 0.00 83 1024.9
20260509005306 38 355 0.0 0.0 0.00 0.00 0.00 84 1024.9
20260509004803 39 355 0.0 0.0 0.00 0.00 0.00 83 1024.9
20260509004303 39 355 0.0 0.0 0.00 0.00 0.00 83 1024.9
20260509003804 39 355 0.0 0.0 0.00 0.00 0.00 83 1024.9
20260509003303 39 355 0.0 0.0 0.00 0.00 0.00 84 1024.9
20260509002803 40 355 0.0 1.0 0.00 0.00 0.00 84 1024.9
20260509001803 40 355 0.0 1.0 0.00 0.00 0.00 84 1024.9
20260509001303 40 355 0.0 1.0 0.00 0.00 0.00 85 1024.9
20260509000803 40 355 0.0 0.0 0.00 0.00 0.00 85 1024.9
20260509000304 40 355 0.0 0.0 0.00 0.00 0.00 85 1024.9
20260508235804 40 355 0.0 0.0 0.00 0.00 0.00 86 1024.9
20260508235306 40 355 1.0 1.0 0.00 0.00 0.00 85 1024.9
20260508234803 40 355 0.0 1.0 0.00 0.00 0.00 85 1024.9
20260508234303 40 355 0.0 1.0 0.00 0.00 0.00 85 1024.9
20260508233804 40 355 0.0 1.0 0.00 0.00 0.00 85 1024.9
20260508233304 40 355 0.0 2.0 0.00 0.00 0.00 84 1024.9
20260508232804 40 355 0.0 1.0 0.00 0.00 0.00 84 1024.9
20260508232307 40 355 0.0 1.0 0.00 0.00 0.00 83 1024.9
20260508231803 40 355 0.0 1.0 0.00 0.00 0.00 83 1024.9
20260508230303 39 355 0.0 0.0 0.00 0.00 0.00 81 1024.9
20260508225804 39 355 0.0 0.0 0.00 0.00 0.00 80 1024.9
20260508225306 39 355 0.0 0.0 0.00 0.00 0.00 80 1024.9
20260508224304 39 355 0.0 0.0 0.00 0.00 0.00 77 1024.9
20260508223804 39 355 0.0 0.0 0.00 0.00 0.00 76 1025.0
20260508222803 39 355 0.0 0.0 0.00 0.00 0.00 75 1025.0
20260508222306 39 355 0.0 0.0 0.00 0.00 0.00 75 1025.0
20260508221804 39 355 0.0 0.0 0.00 0.00 0.00 75 1025.0
20260508221303 39 355 0.0 0.0 0.00 0.00 0.00 75 1025.0
20260508220816 39 355 0.0 0.0 0.00 0.00 0.00 75 1025.0
20260508220303 39 355 0.0 0.0 0.00 0.00 0.00 74 1025.0
20260508215802 39 355 0.0 0.0 0.00 0.00 0.00 71 1025.0
20260508215301 39 355 0.0 0.0 0.00 0.00 0.00 67 1025.0
20260508214802 39 355 0.0 0.0 0.00 0.00 0.00 67 1025.2
20260508213802 39 355 0.0 0.0 0.00 0.00 0.00 68 1025.2
20260508212802 39 355 0.0 0.0 0.00 0.00 0.00 70 1025.2
20260508212306 39 355 0.0 0.0 0.00 0.00 0.00 71 1025.1
20260508211302 40 355 0.0 0.0 0.00 0.00 0.00 70 1025.1
20260508210802 40 355 0.0 0.0 0.00 0.00 0.00 69 1025.1
20260508210302 40 355 0.0 0.0 0.00 0.00 0.00 68 1025.1
20260508205305 40 355 0.0 0.0 0.00 0.00 0.00 65 1025.1
20260508204802 40 355 0.0 0.0 0.00 0.00 0.00 64 1025.1
20260508204302 40 355 0.0 0.0 0.00 0.00 0.00 64 1025.1
20260508203802 40 355 0.0 0.0 0.00 0.00 0.00 64 1025.1
20260508203302 41 355 0.0 0.0 0.00 0.00 0.00 62 1025.1
20260508202802 41 355 0.0 0.0 0.00 0.00 0.00 62 1025.1
20260508201802 41 355 0.0 0.0 0.00 0.00 0.00 58 1025.1
20260508201302 41 355 0.0 0.0 0.00 0.00 0.00 57 1025.0
20260508200802 41 355 0.0 0.0 0.00 0.00 0.00 57 1025.0
20260508200302 42 355 0.0 0.0 0.00 0.00 0.00 55 1025.0
20260508195802 42 355 0.0 0.0 0.00 0.00 0.00 55 1025.0
20260508195305 42 355 0.0 0.0 0.00 0.00 0.00 55 1024.9
20260508194802 42 355 0.0 0.0 0.00 0.00 0.00 54 1024.9
20260508193302 43 355 0.0 0.0 0.00 0.00 0.00 51 1024.9
20260508192802 43 355 0.0 0.0 0.00 0.00 0.00 50 1024.9
20260508192305 44 355 0.0 0.0 0.00 0.00 0.00 50 1024.8
20260508191802 44 355 0.0 0.0 0.00 0.00 0.00 50 1024.8
20260508191302 44 355 0.0 0.0 0.00 0.00 0.00 50 1024.8
20260508190802 44 355 0.0 0.0 0.00 0.00 0.00 50 1024.8
20260508185802 45 355 0.0 0.0 0.00 0.00 0.00 50 1024.6
20260508185306 45 355 0.0 0.0 0.00 0.00 0.00 48 1024.6
20260508184802 45 355 0.0 0.0 0.00 0.00 0.00 47 1024.6
20260508183302 46 355 0.0 0.0 0.00 0.00 0.00 45 1024.6
20260508182802 47 355 0.0 0.0 0.00 0.00 0.00 44 1024.6
20260508182306 47 355 0.0 0.0 0.00 0.00 0.00 44 1024.6
20260508181801 47 355 0.0 0.0 0.00 0.00 0.00 43 1024.6
20260508181302 48 355 0.0 0.0 0.00 0.00 0.00 42 1024.6
20260508180302 49 355 0.0 0.0 0.00 0.00 0.00 40 1024.6
20260508175802 49 355 0.0 0.0 0.00 0.00 0.00 40 1024.6
20260508175305 49 355 0.0 0.0 0.00 0.00 0.00 38 1024.6
20260508174802 50 355 0.0 0.0 0.00 0.00 0.00 38 1024.5
20260508173302 51 355 0.0 0.0 0.00 0.00 0.00 36 1024.5
20260508172306 51 355 0.0 2.0 0.00 0.00 0.00 36 1024.5
20260508171802 52 344 0.0 1.0 0.00 0.00 0.00 35 1024.5
20260508165802 52 222 1.0 2.0 0.00 0.00 0.00 34 1024.7
20260508165306 53 202 0.0 2.0 0.00 0.00 0.00 34 1024.7
20260508164802 53 191 0.0 2.0 0.00 0.00 0.00 35 1024.7
20260508164302 53 137 1.0 3.0 0.00 0.00 0.00 34 1024.8
20260508163802 53 0 1.0 5.0 0.00 0.00 0.00 33 1024.8
20260508163302 54 26 2.0 3.0 0.00 0.00 0.00 34 1024.8
20260508162802 54 102 1.0 3.0 0.00 0.00 0.00 35 1024.8
20260508162306 54 341 1.0 3.0 0.00 0.00 0.00 34 1024.9
20260508161302 54 155 1.0 3.0 0.00 0.00 0.00 34 1024.9
20260508160801 53 222 1.0 5.0 0.00 0.00 0.00 34 1024.9
20260508160303 54 162 2.0 7.0 0.00 0.00 0.00 31 1024.9
20260508155802 54 163 2.0 5.0 0.00 0.00 0.00 33 1024.9
20260508155305 54 180 3.0 6.0 0.00 0.00 0.00 31 1024.9
20260508154303 54 183 2.0 5.0 0.00 0.00 0.00 32 1025.0
20260508153802 54 198 2.0 7.0 0.00 0.00 0.00 33 1025.0
20260508153302 54 123 2.0 3.0 0.00 0.00 0.00 32 1025.0
20260508152802 54 159 2.0 8.0 0.00 0.00 0.00 35 1025.0
20260508151802 54 179 4.0 9.0 0.00 0.00 0.00 32 1025.0
20260508151302 55 177 3.0 9.0 0.00 0.00 0.00 32 1025.0
20260508150802 54 333 2.0 8.0 0.00 0.00 0.00 34 1025.0
20260508150302 55 163 2.0 7.0 0.00 0.00 0.00 32 1025.1
20260508145802 55 149 2.0 6.0 0.00 0.00 0.00 32 1025.1
20260508145302 55 201 2.0 5.0 0.00 0.00 0.00 34 1025.1
20260508144802 55 159 2.0 6.0 0.00 0.00 0.00 33 1025.1
20260508144302 55 181 5.0 9.0 0.00 0.00 0.00 33 1025.1
20260508142306 54 179 3.0 7.0 0.00 0.00 0.00 36 1025.1
20260508141802 55 191 3.0 7.0 0.00 0.00 0.00 36 1025.1